Regional Weather Roundup
Issued by NWS Boston, MA

Home | Current Version | Previous Version | Text Only | Print | Product List | Glossary On
Versions: 1 2 3 4 5 6 7 8 9 10 11 12 13 14 15 16 17 18 19 20 21 22 23 24 25 26 27
000
ASUS41 KBOX 301710
RWRBOX

REGIONAL WEATHER ROUNDUP
NATIONAL WEATHER SERVICE TAUNTON MA
100 PM EDT THU MAR 30 2017

NOTE:  "FAIR" INDICATES FEW OR NO CLOUDS BELOW 12,000 FEET WITH NO
SIGNIFICANT WEATHER AND/OR OBSTRUCTIONS TO VISIBILITY.

MAZALL-301800-
EASTERN MASSACHUSETTS

CITY           SKY/WX    TMP DP  RH WIND       PRES   REMARKS
BOSTON         MOSUNNY   46  21  37 N12       30.19F
BEVERLY        SUNNY     46  21  37 W12       30.18S
LAWRENCE       SUNNY     44  23  43 NW13      30.20S
BEDFORD        SUNNY     47  16  29 MISG      30.17F
BLUE HILL        N/A     44  19  36 NW10G16   30.15F
NORWOOD        SUNNY     48  22  35 W9        30.18F
MARSHFIELD     SUNNY     43  25  49 NE9       30.19F
PLYMOUTH       SUNNY     44  21  40 NE9       30.18F
TAUNTON        SUNNY     47  21  35 W7        30.18F
NEW BEDFORD    SUNNY     47  21  35 N10       30.17F
$$

MAZALL-301800-
CAPE COD AND THE ISLANDS

CITY           SKY/WX    TMP DP  RH WIND       PRES   REMARKS
FALMOUTH       SUNNY     43  19  39 MISG      30.19S
HYANNIS        SUNNY     42  25  50 N16G22    30.18R
CHATHAM        SUNNY     43  25  49 N8G21     30.19S
PROVINCETOWN   SUNNY     42  26  53 N13       30.21R
NANTUCKET      SUNNY     43  26  51 N21       30.19R
MARTHAS VNYRD  SUNNY     48  20  32 NE9G21    30.19R
$$

MAZALL-301800-
CENTRAL AND WESTERN MASSACHUSETTS

CITY           SKY/WX    TMP DP  RH WIND       PRES   REMARKS
WORCESTER      SUNNY     41  16  36 VRB6      30.15F
FITCHBURG      SUNNY     48  20  32 N5        30.18F
ORANGE         SUNNY     45  20  36 N14G22    30.18F
SPRINGFIELD    MOSUNNY   47  18  30 N12       30.17F
WESTFIELD      SUNNY     47  19  33 VRB3      30.18F
NORTH ADAMS    SUNNY     41  22  46 W8        30.19F
PITTSFIELD     SUNNY     40  18  41 VRB3      30.15F
$$

RIZALL-301800-
RHODE ISLAND

CITY           SKY/WX    TMP DP  RH WIND       PRES   REMARKS
PROVIDENCE     MOSUNNY   47  19  33 VRB5      30.19F
NEWPORT        SUNNY     44  22  41 NW10G16   30.19S
SMITHFIELD     SUNNY     46  21  37 VRB3G16   30.17F
WESTERLY       SUNNY     49  22  34 N7G17     30.19F
$$

CTZALL-301800-
CONNECTICUT

CITY           SKY/WX    TMP DP  RH WIND       PRES   REMARKS
BRADLEY INTL   MOSUNNY   47  18  31 CALM      30.19F
HARTFORD       SUNNY     46  21  37 N3        30.20F
BRIDGEPORT     SUNNY     44  25  47 S12       30.21S
DANBURY        SUNNY     46  22  38 VRB3      30.19F
GROTON         SUNNY     50  20  30 N9        30.18F
NEW HAVEN      SUNNY     48  19  31 NE9G17    30.20F
CHESTER        FAIR      46  18  31 W6G12     30.19F
MERIDEN        SUNNY     49  20  31 N7        30.20F
WILLIMANTIC    SUNNY     49  21  33 NW8       30.19F
OXFORD         MOSUNNY   45  19  36 W6        30.18F
$$

MEZ002-015-021-024-NHZ003-005-008-011-012-014-VTZ005-008-301800-
NORTHERN NEW ENGLAND

CITY           SKY/WX    TMP DP  RH WIND       PRES   REMARKS
PORTLAND ME    MOSUNNY   45  21  38 N21       30.16F
BANGOR ME      PTSUNNY   38  22  52 N16       30.12F WCI  29
CONCORD NH     SUNNY     44  20  38 W9G17     30.19F
MANCHESTER NH  MOSUNNY   45  15  30 NE13G18   30.18F
NASHUA NH      SUNNY     45  19  35 N12       30.19F
PORTSMOUTH NH  SUNNY     46  17  30 N8        30.16F
JAFFREY NH     SUNNY     41  17  38 W7        30.16F
KEENE NH       SUNNY     42  17  36 N7        30.19F
BURLINGTON VT  MOSUNNY   40  19  43 NW10      30.26F
MT. WASHINGTON FOG       14  14 100 W13G21      N/A  VSB 1/8 WCI   0
$$

NYZ052-076-301800-
EASTERN NEW YORK

CITY           SKY/WX    TMP DP  RH WIND       PRES   REMARKS
ALBANY         PTSUNNY   44  20  38 NE10      30.23F
NEW YORK CITY  PTSUNNY   48  22  35 SE6       30.21F
$$

ANZALL-301800-
MARINE OBSERVATIONS

STATION/POSITION TIME  TEMP    WIND        PRES    VSBY  WAVE
                       AIR SEA DIR/SP/G                  HT/PER
                 (UTC) (F)     (DEG/KT/KT) (MB)    (MI)  (FT/S)
BOSTON BUOY      1550   38 40   10/  8/  8 1022.0          4/ 7
BUZZARDS BAY     1600   39     110/  3/  4 1023.1F
NANTUCKET SOUND  1650      40              1022.1S         2/ 3
MASS BAY-STELLWA 1604   39 40  340/  8/ 12 1021.5F         4/ 7
ISLE OF SHOALS   1600   40     310/  8/  9 1021.8F
S OF BLOCK IS    1655      40                N/A           3/ 8
$$

......................KEY.........................
  SKY/WX - SKY CONDITION/PRESENT WEATHER
  TMP    - TEMPERATURE IN FAHRENHEIT
  DWPT   - DEWPOINT IN FAHRENHEIT
  RH     - RELATIVE HUMIDITY IN PERCENT
  WIND   - DIRECTION AND SPEED IN MPH
  PRES   - MEAN SEA LEVEL PRESSURE IN INCHES OF HG
  WCI    - WIND CHILL INDEX
  VSB    - VISIBILITY IN MILES
  HX     - HEAT INDEX
  TC     - TEMPERATURE IN CELSIUS
  VRB    - VARIABLE WIND DIRECTION
  N/A    - NOT AVAILABLE




USA.gov is the U.S. government's official web portal to all federal, state and local government web resources and services.